Regional Weather Roundup
Issued by NWS Huntsville, AL

Home | Current Version | Previous Version | Text Only | Print | Product List | Glossary On
Versions: 1 2 3 4 5 6 7 8 9 10 11 12 13 14 15 16 17 18 19 20 21 22 23 24 25 26 27 28 29 30 31 32 33 34 35 36 37 38 39 40 41 42 43 44 45 46 47 48 49 50
000
ASUS44 KHUN 032310
RWRHUN

WEATHER ROUNDUP FOR THE TENNESSEE VALLEY
NATIONAL WEATHER SERVICE HUNTSVILLE AL
600 PM CDT THU SEP 03 2015

ALZ001>004-040000-
NORTHWEST ALABAMA

CITY           SKY/WX    TMP DP  RH WIND       PRES   REMARKS
BANKHEAD NF      N/A     82  65  56 CALM        N/A
SHOALS AIRPORT SUNNY     86  69  56 CALM      29.94S HX  90
$$

ALZ005>007-016-040000-
NORTH CENTRAL ALABAMA

CITY           SKY/WX    TMP DP  RH WIND       PRES   REMARKS
DECATUR AP     MOSUNNY   81  75  82 CALM      29.94F
HUNTSVILLE AP  MOSUNNY   85  73  67 S7        29.94F HX  91
HUN NWS/UAH      N/A     85  69  58 S6          N/A
MERIDIANVILLE  MOSUNNY   79  64  61 W3        29.95S
REDSTONE ARSN  PTSUNNY   83  73  72 S6        29.94S
VINEMONT AP    FAIR      77  73  88 CALM      29.99S
$$

ALZ008>010-040000-
NORTHEAST ALABAMA

CITY           SKY/WX    TMP DP  RH WIND       PRES   REMARKS
ALBERTVILLE    MOSUNNY   84  73  70 W5        29.96F HX  91
FORT PAYNE     MOSUNNY   81  64  57 S6        29.96S
SCOTTSBORO AP  PTSUNNY   86  70  58 E10G16    29.95R HX  90
SCOTTSBORO HCN   N/A     88 N/A N/A MISG        N/A
VALLEY HEAD      N/A     81 N/A N/A MISG        N/A
$$

TNZ076-096-097-040000-
SOUTHEASTERN MIDDLE TENNESSEE

CITY           SKY/WX    TMP DP  RH WIND       PRES   REMARKS
TULLAHOMA      SUNNY     86  66  51 N5        29.97F
WINCHESTER     MOSUNNY   82  70  65 SE3       29.96S
$$

...SURROUNDING SITES...

CITY           SKY/WX    TMP DP  RH WIND       PRES   REMARKS
ATLANTA        CLOUDY    74  69  85 NW7       29.96S
ANNISTON       MOSUNNY   79  67  66 E8        29.96F
BIRMINGHAM     PTSUNNY   83  70  64 NE7       29.96S
CHATTANOOGA    PTSUNNY   88  64  44 N6        29.94S
DALTON         MOSUNNY   81  68  65 CALM      29.95S
GADSDEN        MOSUNNY   84  68  58 CALM      29.94S
GOLDEN TRNGL   SUNNY     93  66  40 N7        29.91F HX  96
HALEYVILLE     FAIR      84  75  74 CALM      29.98S HX  91
JACKSON TN     SUNNY     90  69  50 NW5       29.92F HX  94
MEMPHIS        MOSUNNY   92  68  45 SW5       29.92F HX  96
NASHVILLE      PTSUNNY   91  61  36 E7        29.93F HX  91
OXFORD MS      FAIR      86  66  51 NE5       29.94S
ROME           MOSUNNY   77  68  73 SW7       29.94F
SAVANNAH       SUNNY     90  32  12 W3        29.93S
TUPELO         MOSUNNY   90  67  46 NW3       29.91F HX  93
TUSCALOOSA     SUNNY     92  66  42 NE3       29.92R HX  94
$$

...GULF COAST WEATHER...

CITY           SKY/WX    TMP DP  RH WIND       PRES   REMARKS
GULFPORT       PTSUNNY   83  74  74 S6        29.91F
PASCAGOULA     MOSUNNY   83  74  74 VRB3      29.92F
MOBILE         PTSUNNY   84  72  67 S6        29.94R
GULF SHORES    MOCLDY    82  75  79 W3        29.92F
PENSACOLA      PTSUNNY   83  74  74 SW7       29.92F
DESTIN         PTSUNNY   85  75  72 SW8       29.92F HX  93
PANAMA CITY    CLOUDY    85  76  73 W14       29.93F HX  94
APPALACHICOLA  CLOUDY    83  75  77 W5        29.93S HX  90
$$




USA.gov is the U.S. government's official web portal to all federal, state and local government web resources and services.